Regional Weather Roundup
Issued by NWS Upton, NY

Current Version | Previous Version | Text Only | Print | Product List | Glossary Off
Versions: 1 2 3 4 5 6 7 8 9 10 11 12 13 14 15 16 17 18 19 20 21 22 23 24 25 26 27 28 29 30 31 32 33 34 35 36 37 38 39 40 41 42 43 44 45 46 47 48 49 50
450 ASUS41 KOKX 010208 RWROKX REGIONAL WEATHER ROUNDUP NATIONAL WEATHER SERVICE NEW YORK NY 1000 PM EDT FRI SEP 30 2016 NOTE: "FAIR" INDICATES FEW OR NO CLOUDS BELOW 12,000 FEET WITH NO SIGNIFICANT WEATHER AND/OR OBSTRUCTIONS TO VISIBILITY. NYZ071-072-176-178-NJZ106-104-010300- NEW YORK CITY METRO AREA CITY SKY/WX TMP DP RH WIND PRES REMARKS Central Park LGT RAIN 56 54 93 NE8G18 30.29S FOG LaGuardia APRT LGT RAIN 61 58 90 NE18G26 30.25F FOG Kennedy INTL LGT RAIN 59 56 89 NE14G22 30.25F Newark/Liberty DRIZZLE 57 56 96 NE16 30.26F FOG Bronx Bot Gard N/A 55 54 94 NE10 30.28R Wall St Helipt CLOUDY 61 59 94 NE13G18 30.26S Teterboro DRIZZLE 57 54 89 NE9 30.27S FOG $$ NYZ177-179-078>081-010300- LONG ISLAND NEW YORK CITY SKY/WX TMP DP RH WIND PRES REMARKS Farmingdale CLOUDY 59 57 93 NE10 30.25S MacArthur/ISP LGT RAIN 59 57 93 NE15 30.24F FOG Shirley LGT RAIN 58 57 97 VRB7 30.25F FOG Riverhead NOT AVBL Westhampton LGT RAIN 59 57 93 NE16G25 30.26S Southampton N/A 59 59 100 NE7 30.22S Bridgehampton N/A 59 57 94 E6 30.10F East Hampton LGT RAIN 59 58 96 NE13G21 30.25S Montauk N/A 60 59 96 NE13G25 30.26S $$ NYZ052-065-067-010300- HUDSON VALLEY CITY SKY/WX TMP DP RH WIND PRES REMARKS White Plains DRIZZLE 55 53 93 NE10 30.27S Newburgh CLOUDY 54 54 100 NE14 30.33R FOG Montgomery LGT RAIN 54 52 93 NE12 30.31S FOG Poughkeepsie CLOUDY 53 52 96 N8 30.31S FOG Albany LGT RAIN 53 49 86 N5 30.38R $$ NJZ001-105-106-008-010-013-015-019>022-104-010300- NEW JERSEY CITY SKY/WX TMP DP RH WIND PRES REMARKS Newark/Liberty DRIZZLE 57 56 96 NE16 30.26F FOG Teterboro DRIZZLE 57 54 89 NE9 30.27S FOG Caldwell CLOUDY 56 54 93 NE8 30.28S FOG Morristown CLOUDY 55 55 100 NE8 30.28S FOG Somerville CLOUDY 57 54 89 NE7 30.24F FOG Linden NOT AVBL Sussex CLOUDY 54 53 97 NE8G20 30.30R FOG Abdover N/A 54 53 97 VRB3 30.28S Trenton CLOUDY 57 55 93 NE10 30.22F FOG Millville CLOUDY 63 63 100 NE14 30.16F Atlantic City CLOUDY 63 62 97 NE15 30.16F FOG Wrightstown CLOUDY N/A N/A N/A MISG N/A Toms River LGT RAIN 62 61 96 NE14 30.22R FOG Belmar LGT RAIN 60 59 96 NE14G24 30.23S FOG $$ PAZ047>061-062-071-010300- EASTERN PENNSYLVANIA CITY SKY/WX TMP DP RH WIND PRES REMARKS Philadelphia CLOUDY 61 57 87 NE12G22 30.20F Allentown CLOUDY 57 54 89 NE10 30.25S Scranton CLOUDY 55 51 86 NE9 30.26F $$ CTZ002-004>006-009-010-012-RIZ004-006-007-MAZ004-011-015-010300- SOUTHERN NEW ENGLAND IN CT CITY SKY/WX TMP DP RH WIND PRES REMARKS Bradley INTL LGT RAIN 52 50 93 N12 30.35S FOG Hartford LGT RAIN 53 52 96 N12 30.33S FOG Danbury LGT RAIN 52 51 97 NE9 30.31S FOG Wtrbury/Oxford NOT AVBL Bridgeport CLOUDY 57 53 86 NE15 30.28S Meriden LGT RAIN 54 51 90 N10 30.32R FOG New Haven CLOUDY 56 54 93 N8 30.29S Chester DRIZZLE 55 54 94 NE8G15 30.30R Groton LGT RAIN 59 55 87 NE13 30.27S FOG Wilimantic CLOUDY 56 54 93 NE9 30.33S IN RI CITY SKY/WX TMP DP RH WIND PRES REMARKS Providence LGT RAIN 57 55 93 NE13 30.33S FOG Block Island LGT RAIN 60 58 92 NE20G30 30.27R FOG Westerly CLOUDY 58 54 86 NE10G18 30.28S IN MA CITY SKY/WX TMP DP RH WIND PRES REMARKS Boston CLOUDY 57 56 96 NE20 30.37F Worcester LGT RAIN 49 47 93 NE13G21 30.36S FOG Westfield LGT RAIN 51 50 96 N12 30.36S FOG Provincetown LGT RAIN 58 57 97 E12 30.36F Nantucket LGT RAIN 60 58 92 NE22G29 30.27F FOG $$ ANZ330-335-338-340-345-350-353-355-010300- COASTAL MARINE OBSERVATIONS STATION/POSITION TIME SKY/WX TEMP WIND PRES VSBY WAVE AIR SEA DIR/SP/G HT/PER (UTC) (F) (DEG/KT/KT) (MB) (MI) (FT/S) NY HARB ENTRANCE 0150 62 68 50/ 25/ 31 1022.1 10/10 20S FIRE ISLAND 0150 63 67 60/ 27/ 31 1021.4 12/10 GREAT SOUTH BAY 0130 60 64 30/ 17/ 21 N/A 23 SSW MONTAUK P 0150 62 65 70/ 29/ 35 1022.5 11/ 8 15 E BARNEGAT LI 0100 69 N/A 12/10 HUDSON CANYON 0050 70 70 1019.6 11/10 KINGS POINT 0130 68 1024.5 EXECUTION ROCKS 0145 60 50/ 21/ 27 N/A CENTRAL LI SOUND NOT AVBL EASTERN LI SOUND NOT AVBL ROBBINS REEF 0130 50/ 15/ 22 1024.5 $$ >>>>>>>>>>>>>>>>>>>>>>>>>>>> KEY <<<<<<<<<<<<<<<<<<<<<<<<<<< > < > SKY/WX - Sky Condition/Present Weather < > TMP - Temperature in Fahrenheit < > DP - Dew Point in Fahrenheit < > RH - Relative Humidity in Percent < > WIND - Direction (from) and Speed in MPH < > PRES - Mean Sea Level Pressure (inches of Hg) < > WCI - Wind Chill Index < > VSB - VISIBILITY IN MILES < > HX - HEAT INDEX < > TC - TEMPERATURE IN CELSIUS < > VRB - VARIABLE WIND DIRECTION < > < >>>>>>>>>>>>>>>>>>>>>>>>>>>> KEY <<<<<<<<<<<<<<<<<<<<<<<<<<<

USA.gov is the U.S. government's official web portal to all federal, state and local government web resources and services.